Theta_e
323 324 324 325 326 326 326 327 328 328 329 331 331 331 330 330 331 331 331 331 332 332 332 332 333 333 333 333 334 334 335 335 335 336 337 337 337 338 338 338 338 337 336 335 335 335 337 339 340 341 341 341 341 341 340 339 339 338 338 338 338 338 338 338 339 339 338 338 337 337 336 336 336 335 334 334 334 333 333 334 334 334 333 332 332
322 323 324 324 325 325 325 326 326 327 328 330 331 331 331 330 330 330 331 331 331 331 332 332 332 332 333 333 333 334 334 335 335 335 336 337 338 338 337 337 338 338 337 335 335 338 339 340 339 339 340 340 340 340 340 339 339 339 339 339 339 339 338 338 339 339 339 339 337 337 336 335 335 334 334 334 333 332 332 332 331 332 330 328 327
320 322 323 323 323 323 324 324 325 326 327 328 329 329 329 329 330 330 330 331 331 331 331 332 332 332 332 332 332 333 334 334 334 334 335 337 337 336 336 337 338 339 338 336 338 340 340 340 339 339 339 339 340 340 340 339 339 339 338 338 339 339 338 338 339 339 339 338 338 337 336 335 334 333 333 332 332 332 331 330 329 329 328 325 324
319 320 321 322 322 322 323 323 324 324 325 325 326 326 326 327 328 329 330 330 331 331 331 331 331 332 332 332 332 333 333 332 332 334 336 336 335 334 335 337 339 340 339 339 340 341 340 340 339 339 339 338 339 339 339 339 339 338 338 338 338 338 338 338 338 338 338 338 337 337 335 334 333 332 332 331 330 330 330 328 327 327 326 323 322
319 319 319 320 321 321 322 322 323 323 324 325 324 324 325 325 326 327 328 329 330 330 330 331 331 331 331 332 332 332 332 330 330 333 335 336 335 334 335 337 340 340 340 340 340 340 340 339 338 338 338 338 338 339 339 339 339 338 338 338 338 338 338 338 338 338 337 337 336 335 334 333 332 331 331 330 329 328 327 326 325 325 325 323 321
318 318 319 319 320 320 321 322 322 322 323 324 323 323 324 324 325 325 326 327 328 329 329 330 331 331 331 331 332 332 332 330 329 331 334 336 336 336 337 339 340 341 341 341 340 339 339 338 338 338 338 338 338 338 338 338 338 338 337 337 337 337 337 337 337 337 337 335 334 333 332 332 331 331 329 328 326 326 326 324 323 324 324 322 322
318 318 319 319 319 320 320 321 321 322 322 322 322 323 323 323 323 323 324 324 325 326 327 328 330 330 331 331 331 331 332 330 329 330 333 334 335 337 338 340 340 339 340 339 339 339 338 337 337 337 337 338 338 338 338 338 337 337 337 337 336 336 336 336 335 335 334 333 332 331 331 330 330 329 328 326 324 324 324 322 322 323 322 322 323
317 318 318 318 319 319 320 320 320 320 321 321 322 322 322 321 321 321 321 322 322 323 324 325 326 328 330 330 330 331 332 332 330 331 332 333 334 335 336 338 338 337 337 338 338 337 338 337 336 336 336 336 336 336 337 336 336 336 336 336 335 335 335 334 332 332 331 331 330 330 329 328 328 327 325 324 323 322 322 322 322 322 321 321 322
317 317 318 318 318 318 319 319 319 319 319 320 321 320 320 320 320 320 319 320 320 320 320 322 323 325 327 329 329 330 331 332 331 331 332 333 334 335 335 335 336 335 335 336 337 337 337 335 334 333 334 334 334 334 334 334 334 335 334 334 333 333 331 330 330 330 329 329 329 328 327 326 326 325 323 322 321 321 321 321 321 321 320 321 321
316 317 317 317 317 318 318 318 318 318 318 319 319 319 319 319 319 319 318 318 319 319 319 319 319 321 323 325 327 328 329 330 331 330 331 333 333 334 334 335 335 334 334 334 335 334 333 331 330 331 331 330 330 329 327 327 329 330 330 329 329 330 330 330 329 328 328 327 327 326 326 324 324 323 322 321 320 319 320 320 320 320 320 320 320
316 316 316 316 316 317 317 317 317 317 317 317 317 317 317 317 317 317 317 317 317 317 317 317 317 317 317 319 322 325 326 327 329 329 330 330 331 332 333 333 333 332 331 331 332 331 327 325 325 324 323 323 323 322 321 321 322 322 322 322 322 324 326 327 328 328 327 326 325 325 323 322 322 321 320 319 319 319 319 319 319 319 318 319 319
315 315 315 315 316 315 316 316 315 315 315 315 315 315 315 315 316 316 316 316 316 316 316 315 315 316 315 316 317 319 321 323 326 328 329 329 330 330 331 330 330 328 327 327 328 327 324 321 320 319 319 319 319 318 318 318 318 318 318 318 318 319 320 322 325 326 325 323 323 323 321 321 320 319 317 316 317 318 318 318 318 317 316 317 317
314 314 314 314 315 315 315 314 314 314 314 313 313 313 313 314 315 316 316 315 315 316 315 314 314 315 315 315 314 314 317 319 321 325 327 327 327 328 328 328 327 325 324 323 322 322 320 319 318 317 317 317 317 316 316 316 316 316 316 316 316 316 316 317 319 321 322 321 321 321 319 319 319 317 314 314 315 316 316 316 316 314 315 316 315
314 314 313 313 314 314 313 313 312 313 312 312 312 313 313 313 314 314 314 314 314 315 314 314 314 315 315 314 313 312 313 315 317 319 322 323 324 324 323 323 322 321 319 318 318 318 318 318 317 316 316 318 318 318 317 316 317 317 317 317 315 314 315 315 315 317 319 319 319 318 316 316 315 314 312 312 313 314 314 314 314 313 314 316 315
313 313 313 313 313 312 312 312 312 312 312 311 311 312 313 313 312 312 313 313 313 314 313 312 313 314 314 313 312 311 311 311 313 314 316 318 318 318 318 317 317 316 315 315 315 316 317 317 317 316 317 317 318 318 319 319 319 318 317 315 313 313 313 314 314 315 315 316 315 314 312 311 310 309 308 308 311 312 312 312 312 312 314 315 314
312 312 313 313 312 311 311 312 311 311 311 311 311 312 312 312 311 311 312 312 313 313 311 310 311 312 312 311 311 310 309 310 310 311 312 314 314 314 315 314 314 314 314 313 314 315 316 317 317 316 316 315 316 317 318 318 318 317 316 314 311 310 310 309 310 311 311 311 310 309 308 306 306 305 304 305 307 310 312 311 310 311 311 311 310
312 312 312 312 312 311 311 311 311 311 310 310 311 311 311 311 310 311 311 312 312 311 309 308 308 309 310 309 309 309 308 309 309 309 310 311 312 313 313 314 313 314 314 314 314 314 315 315 316 315 313 313 313 314 316 317 317 317 316 314 311 309 307 306 306 307 307 307 306 306 305 304 303 302 302 301 302 306 310 309 306 308 308 307 307
311 312 312 312 311 311 311 311 310 310 310 310 310 310 310 310 310 310 311 312 311 309 308 307 307 308 309 308 308 307 307 307 307 308 309 310 312 313 313 313 313 314 314 313 313 312 312 314 314 313 312 312 311 312 314 316 316 316 315 314 313 311 308 306 305 305 305 304 303 302 301 301 300 298 296 295 295 299 304 305 303 305 306 305 306
311 311 311 312 311 310 310 310 310 310 310 310 309 309 309 309 309 310 311 311 310 308 307 307 306 307 307 306 306 306 306 305 306 306 307 310 312 313 313 313 313 313 313 313 312 311 310 311 312 312 312 312 311 311 314 316 316 315 315 314 313 312 311 309 308 308 307 306 305 304 303 302 301 299 296 295 295 297 301 302 302 303 304 304 305
311 310 311 312 311 310 309 310 310 310 310 309 309 309 309 309 309 310 311 311 310 309 307 307 306 305 305 305 305 305 305 306 306 306 306 309 311 312 312 312 312 312 312 312 312 311 310 310 310 311 311 310 310 311 313 315 315 314 314 314 313 312 311 310 309 309 309 308 306 306 304 303 302 301 300 300 300 300 301 301 302 302 303 303 303
310 310 310 311 312 310 309 309 310 310 309 308 309 309 309 309 310 310 310 310 310 308 306 306 305 304 304 304 305 305 305 305 305 305 306 307 310 312 312 312 312 312 312 312 312 313 312 310 309 309 310 310 310 311 312 313 313 313 313 313 311 310 310 309 308 308 307 306 305 304 303 302 302 302 301 302 302 301 301 301 301 301 302 302 303
310 310 310 310 310 310 309 308 309 309 308 308 309 309 309 310 310 310 310 310 308 306 305 305 305 305 305 304 304 304 304 305 305 306 306 306 308 311 312 312 312 312 312 312 312 312 311 310 309 309 310 310 309 310 310 311 311 311 310 309 308 308 308 307 306 306 305 304 303 303 303 303 302 302 302 301 301 301 301 300 300 300 300 300 301
310 310 310 310 310 309 309 308 308 308 308 308 309 309 309 310 310 310 310 308 307 305 304 305 305 305 305 305 304 304 304 305 305 306 306 306 307 309 310 311 311 313 313 312 312 311 310 309 309 309 309 309 308 308 308 308 308 307 306 305 304 305 305 304 303 303 303 303 304 303 303 303 302 301 301 301 301 301 301 301 301 300 300 300 300
309 310 310 310 309 309 309 309 308 308 308 308 308 309 310 310 310 310 309 308 306 304 304 304 305 305 305 305 305 304 304 304 305 306 306 306 306 307 308 310 311 312 312 311 311 310 309 307 307 307 307 307 306 306 305 304 302 301 299 300 301 302 302 303 303 304 304 304 303 303 302 302 301 301 301 301 301 301 301 301 301 300 300 300 300
310 310 310 309 308 308 308 309 308 308 308 307 307 308 310 310 310 310 309 308 306 305 304 304 305 304 304 304 305 305 305 304 305 306 306 306 306 307 308 309 310 310 311 310 310 309 307 306 305 305 304 303 302 301 300 297 296 296 297 299 301 303 303 304 304 304 304 303 303 302 302 301 300 301 302 302 301 300 300 301 301 300 299 299 300
310 310 309 308 308 308 308 308 308 308 308 308 307 307 308 309 311 310 309 308 307 305 305 306 306 305 303 303 304 305 305 305 305 306 306 307 307 307 308 308 308 309 309 308 307 306 305 304 304 303 303 302 301 299 296 294 294 297 300 302 303 304 304 304 304 303 303 303 302 302 302 301 301 302 302 302 301 300 300 300 300 299 299 299 299
310 309 309 308 309 308 308 308 308 308 308 308 308 307 307 308 310 310 310 309 307 307 307 308 308 307 304 302 304 305 306 306 306 306 306 306 306 307 307 307 307 306 305 304 304 304 303 302 301 300 300 300 299 297 296 296 299 302 303 303 303 303 303 303 303 303 303 302 302 302 302 302 302 302 302 302 301 301 300 300 300 300 299 299 299
309 309 309 308 309 309 308 308 307 308 308 308 308 308 307 306 308 310 310 310 309 309 309 309 309 308 304 302 303 305 306 306 307 307 306 306 306 306 306 306 306 306 305 304 304 303 301 300 299 298 298 298 298 299 301 302 303 304 303 302 302 302 302 302 303 303 303 303 303 303 303 303 302 302 302 301 301 301 300 300 300 300 299 298 298
309 308 308 308 308 308 308 308 308 308 308 308 309 309 307 306 306 308 309 310 310 310 309 309 309 307 304 301 303 305 306 306 307 307 306 306 306 306 306 307 307 306 305 304 304 303 303 302 302 302 302 303 303 304 304 304 303 304 304 303 303 303 303 303 303 303 303 303 303 302 303 303 302 302 302 301 301 301 300 300 300 300 299 298 298
309 308 307 307 307 307 308 308 308 308 308 308 308 307 306 305 305 306 308 308 308 309 309 308 308 307 304 302 303 306 306 306 306 306 305 304 304 305 306 307 306 304 302 302 304 305 305 305 305 305 305 305 305 305 304 304 304 304 303 303 303 303 303 303 303 303 302 303 303 302 302 303 302 302 302 301 301 301 301 300 300 300 299 298 298
308 307 306 305 305 306 307 308 308 308 308 308 307 305 304 303 302 303 306 306 306 307 308 307 307 306 303 302 304 304 305 305 305 305 304 302 302 303 303 303 302 300 299 303 306 306 306 306 306 305 305 305 305 305 305 304 304 304 304 304 303 303 303 303 303 303 302 303 303 302 302 302 302 302 302 301 301 301 301 300 300 300 299 298 297
308 307 306 305 305 306 308 309 308 308 308 308 307 305 304 302 300 300 302 304 304 305 305 305 306 304 302 302 303 303 303 304 304 304 303 302 302 301 300 300 300 299 300 304 306 306 306 306 305 305 305 305 305 304 304 304 304 304 304 304 304 304 303 304 303 303 303 303 303 303 303 303 302 302 301 301 301 301 301 300 300 299 299 298 297
308 307 306 306 305 305 307 308 308 308 308 308 307 306 304 303 302 300 300 301 302 302 302 303 303 301 299 300 301 302 302 303 303 303 303 303 302 302 301 300 300 300 300 303 306 306 306 306 306 305 305 305 305 305 305 304 305 305 304 305 305 304 304 304 304 303 303 303 303 303 303 302 302 302 302 301 301 301 301 300 300 299 298 297 296
309 307 307 306 305 305 307 308 308 308 308 308 308 307 305 304 303 302 301 301 301 301 301 300 299 298 298 299 300 301 302 302 302 301 301 301 301 302 302 301 301 301 301 303 305 306 305 305 306 305 305 305 305 305 305 305 305 305 305 305 305 304 304 304 304 304 303 303 303 303 303 303 302 302 302 301 301 301 300 300 300 299 298 297 296
309 308 307 306 306 305 306 307 307 307 307 307 307 307 306 305 304 303 302 301 301 300 300 299 298 298 299 299 300 300 301 301 300 300 300 299 300 300 300 301 301 301 301 303 305 306 306 306 306 306 306 306 306 305 305 305 305 305 305 305 305 305 304 304 304 304 304 303 303 303 303 303 303 302 301 301 301 301 300 299 299 298 297 296 295
309 308 307 306 306 305 306 307 307 307 308 307 307 307 307 306 305 304 303 302 302 301 302 302 301 300 300 300 300 300 300 300 300 300 300 300 300 300 301 302 304 303 303 304 305 306 306 306 306 306 306 306 306 305 305 305 305 305 305 305 305 305 305 305 305 304 304 304 303 303 303 303 303 302 301 301 300 300 299 299 298 297 296 295 294
309 309 308 306 306 306 306 306 307 307 307 307 307 307 307 307 307 306 304 304 303 303 304 304 303 302 301 301 301 301 300 300 301 300 300 301 300 300 302 304 306 306 306 306 306 306 306 306 306 306 306 306 306 306 306 306 305 305 305 305 305 305 305 304 304 303 303 304 303 303 303 303 303 302 301 300 299 299 298 298 297 297 295 294 293
309 309 308 307 306 306 307 307 306 306 307 307 307 307 307 307 307 306 306 305 304 304 305 305 305 304 303 302 301 301 301 301 301 301 301 301 301 301 302 305 307 307 307 307 307 306 307 306 306 306 306 306 306 306 306 306 306 306 305 305 305 305 304 303 303 303 303 303 303 303 303 303 302 302 301 299 298 297 297 297 296 296 295 294 293
310 309 309 307 307 307 307 307 307 306 306 306 306 306 307 307 307 306 306 306 305 304 305 306 306 305 304 304 303 302 301 302 302 302 302 302 302 302 304 305 306 306 306 307 307 307 307 307 306 306 306 306 306 306 306 306 305 305 305 305 305 304 304 304 303 303 303 303 303 303 302 302 301 300 299 298 297 297 297 296 295 295 294 293 292
310 309 309 307 307 307 307 307 307 306 306 306 306 306 306 307 306 306 306 306 305 304 304 305 306 305 305 305 305 303 303 303 304 304 305 304 304 305 305 306 307 307 307 307 307 307 307 307 307 306 306 306 306 305 305 305 305 305 305 304 304 303 303 303 303 302 302 303 302 302 301 301 300 298 297 297 296 295 295 294 293 293 292 292 292
309 309 309 307 306 307 307 307 307 307 306 306 306 307 306 306 306 306 306 306 306 305 304 305 305 305 305 306 306 305 304 305 306 306 306 306 306 306 306 306 307 307 307 307 307 307 307 307 307 306 306 306 305 305 304 304 304 304 304 303 303 302 302 302 302 302 302 302 301 301 300 299 298 297 296 295 294 294 293 293 293 292 292 291 291
309 309 309 307 306 306 307 307 307 307 307 306 306 307 306 306 305 305 306 306 306 305 305 304 305 305 305 306 306 305 305 305 307 307 307 307 307 307 307 307 307 307 307 307 307 307 307 307 307 306 306 305 305 304 304 304 303 303 303 303 303 302 301 301 301 301 301 300 300 299 297 296 295 295 295 294 293 293 293 292 292 291 291 291 290
310 310 310 308 306 306 307 308 307 307 307 307 306 306 306 305 305 305 305 306 306 305 305 304 304 305 306 306 305 305 304 305 306 307 307 307 307 307 307 307 307 307 307 307 307 307 307 307 307 306 306 305 305 304 303 303 303 302 302 302 302 301 301 300 300 300 299 298 297 295 295 294 294 294 294 293 292 292 292 291 291 290 290 290 290
311 311 310 309 308 307 307 308 308 307 307 307 306 306 306 305 305 305 304 305 306 305 305 305 304 304 305 306 305 304 304 305 306 307 307 307 307 307 307 307 307 307 307 307 307 307 307 307 306 306 305 305 304 303 302 302 302 301 301 301 300 300 300 299 299 298 297 296 295 294 294 293 293 293 293 292 292 291 291 290 290 290 289 289 289
311 311 311 310 309 308 308 308 308 308 307 307 307 306 306 306 305 305 304 305 305 305 305 305 305 304 305 306 306 304 304 305 306 306 307 307 307 307 307 307 307 307 307 307 307 307 306 306 306 305 304 304 303 302 302 301 301 300 300 300 299 298 298 298 297 296 295 295 295 294 294 293 292 292 292 291 290 290 290 289 289 289 288 288 288
312 312 311 311 310 310 309 309 309 308 308 307 307 307 306 306 306 305 304 304 304 305 305 305 305 305 305 306 306 305 305 305 306 306 307 307 307 307 307 307 307 308 308 307 307 306 306 306 305 305 304 303 302 301 301 300 300 299 299 299 298 298 297 297 296 295 294 294 294 293 292 292 291 291 290 289 289 289 289 288 288 288 287 287 287
312 312 311 311 311 310 310 310 309 309 309 308 308 307 307 307 306 306 305 304 303 304 305 305 306 305 305 306 306 306 306 305 306 307 307 307 307 307 307 307 308 308 307 307 306 306 305 305 304 304 303 302 301 300 299 299 298 298 297 297 297 296 295 295 294 294 293 293 292 292 291 291 290 290 289 289 288 288 288 288 287 287 287 287 286
312 312 312 311 311 311 310 310 310 309 309 309 308 308 308 307 307 306 306 305 303 303 304 305 306 306 305 306 306 306 306 306 306 306 307 307 307 307 307 308 308 307 307 306 306 305 304 304 303 303 302 300 300 299 298 298 297 296 296 295 295 295 295 294 293 293 292 291 291 291 290 290 289 289 289 288 288 288 287 287 287 287 286 286 286
312 312 312 312 311 311 311 311 310 310 310 310 309 308 308 308 307 307 307 306 305 303 303 304 305 306 306 306 306 306 306 306 306 306 307 307 306 307 308 308 307 306 306 306 305 304 304 303 302 302 301 299 299 298 298 297 296 295 295 295 295 295 295 294 293 292 291 290 290 290 289 289 289 289 288 288 287 287 287 286 286 286 286 286 286
312 312 312 312 311 311 311 311 311 311 310 310 310 309 309 308 308 308 307 307 306 305 303 304 304 305 306 306 305 305 305 305 306 306 307 307 307 308 308 307 306 305 305 305 304 303 303 302 301 301 300 299 298 298 297 296 295 295 295 295 295 295 294 293 292 291 291 290 289 288 288 288 288 288 288 287 287 287 287 286 286 285 285 285 285
312 312 312 312 312 311 311 311 311 311 311 311 311 310 310 309 309 309 308 308 307 306 304 304 304 305 305 305 305 304 305 305 306 306 306 307 307 307 307 305 304 304 304 304 304 303 302 301 300 299 299 298 297 296 295 295 295 295 295 295 295 294 293 292 291 291 290 289 288 288 287 287 287 287 287 286 286 286 286 285 285 284 284 284 285
Wind_Speed
6 7 6 6 7 7 7 7 7 7 7 7 8 10 12 13 13 14 15 15 16 17 19 19 21 22 23 24 24 24 24 25 26 26 26 25 23 22 21 19 19 19 18 17 16 16 16 15 14 13 11 10 9 9 9 8 8 8 8 8 8 8 9 8 8 8 7 5 5 5 5 5 5 4 4 4 6 7 6 5 6 6 5 5 5
6 6 7 6 7 7 8 8 8 7 7 8 8 9 11 11 12 13 14 14 15 16 17 19 21 23 24 25 26 25 23 24 26 28 28 25 23 22 20 19 19 19 18 18 17 17 16 15 14 12 11 11 10 10 9 9 8 8 8 8 8 8 8 7 7 8 7 6 6 5 4 5 5 4 4 5 6 7 6 6 6 6 6 7 6
6 6 6 6 7 7 8 8 8 7 7 7 8 9 10 10 11 12 13 14 15 16 16 18 20 23 24 23 24 25 23 23 25 26 26 23 21 21 20 18 18 19 18 18 17 16 15 14 13 12 11 11 11 10 10 9 9 9 8 8 7 7 7 7 7 7 7 7 6 5 4 4 4 4 4 5 5 6 6 7 8 7 6 8 7
6 6 6 6 7 7 8 8 7 7 6 7 8 8 8 9 9 10 12 13 14 15 16 18 19 20 22 22 23 25 26 26 24 22 22 21 21 22 21 18 18 18 18 17 16 16 14 13 12 12 11 11 11 11 11 10 9 9 8 8 7 7 6 6 7 7 7 7 6 5 4 3 4 4 4 4 4 6 6 7 8 7 7 9 8
6 6 6 7 7 7 7 8 8 7 6 6 7 7 7 8 7 8 10 12 13 14 15 16 17 19 20 21 22 25 28 29 26 22 19 18 20 22 22 19 18 18 18 17 16 15 13 12 11 11 11 11 12 12 11 10 10 8 8 7 7 6 6 6 7 7 7 7 6 5 4 3 3 3 4 4 6 7 7 7 8 7 7 9 8
6 7 7 7 8 7 7 7 8 7 6 6 6 7 7 7 7 7 8 10 11 12 13 13 14 17 19 21 22 23 25 29 28 24 19 16 17 19 19 18 17 17 17 16 15 14 12 12 12 12 12 12 12 11 11 11 10 9 8 7 6 6 6 7 6 6 6 7 6 5 4 4 3 3 4 5 8 9 8 8 8 6 7 9 8
7 7 7 7 8 7 7 7 7 6 5 5 5 5 5 5 6 6 7 7 8 10 12 12 13 15 17 20 22 23 23 27 28 25 21 18 18 18 17 16 16 17 16 15 14 14 13 13 13 12 12 12 12 11 11 10 10 9 8 7 7 7 7 7 6 6 6 6 6 5 4 4 3 4 5 6 9 9 8 10 9 7 8 9 7
7 7 7 7 7 6 6 5 5 4 3 3 3 3 4 5 6 6 7 7 7 7 9 11 13 15 17 18 22 23 23 25 27 26 23 21 22 23 21 18 17 17 16 15 15 14 14 13 12 12 13 13 11 10 10 9 8 8 8 7 7 7 7 6 5 5 5 5 6 5 5 5 4 5 6 8 9 9 8 9 9 8 9 8 5
7 7 7 7 6 5 4 3 2 2 2 3 3 3 4 4 5 6 7 7 7 7 7 7 9 12 14 17 20 21 22 24 25 25 23 22 24 25 23 20 19 18 16 14 14 14 13 11 12 13 14 14 12 11 10 9 8 6 6 6 5 5 6 5 4 5 5 5 6 5 6 7 5 6 7 8 9 10 9 8 8 8 9 8 5
7 7 7 6 5 4 3 2 2 3 3 4 4 4 4 4 5 5 6 7 7 7 6 5 5 6 7 10 16 18 19 21 22 22 22 23 24 24 21 18 17 18 18 16 14 14 12 11 13 13 12 12 11 9 8 9 8 6 5 5 5 4 4 5 5 6 5 5 6 5 7 7 5 6 7 8 8 9 8 7 7 8 8 7 5
7 7 7 6 5 4 3 3 3 4 5 5 5 5 5 5 5 5 4 6 6 6 5 4 1 1 2 4 9 13 15 17 20 21 21 22 23 23 22 18 15 16 18 18 17 16 12 10 11 10 8 9 9 8 7 6 6 5 4 4 5 4 3 4 5 5 5 7 6 4 5 5 6 6 6 8 7 7 7 7 8 8 8 7 5
7 7 6 5 5 5 4 4 5 5 5 6 5 5 5 4 4 3 2 3 4 4 4 7 9 8 7 8 7 7 9 11 15 19 21 20 21 21 20 19 15 13 15 16 17 16 14 12 12 11 9 9 8 7 6 5 4 4 4 4 4 4 3 3 3 2 3 6 3 1 3 5 4 4 6 7 7 7 7 7 7 8 7 7 6
6 7 6 6 5 5 5 5 5 5 5 6 6 5 5 3 3 3 1 2 2 2 2 8 14 16 14 13 13 11 10 8 10 16 21 21 20 20 20 19 17 15 15 15 15 15 15 13 13 11 10 9 8 7 8 8 8 8 7 7 7 7 6 5 4 4 3 1 1 4 4 4 3 4 5 7 8 8 7 7 7 8 7 6 6
6 7 6 6 6 6 6 6 6 5 5 6 6 6 4 2 2 2 1 1 1 2 1 6 14 16 16 15 13 13 14 12 11 14 17 17 18 19 20 21 20 18 16 15 14 14 13 11 11 11 10 10 9 10 10 10 10 9 9 10 11 10 10 9 6 7 8 6 5 6 6 7 6 4 5 6 7 7 7 7 7 8 8 6 4
7 7 6 6 6 6 6 6 5 5 6 6 5 5 3 1 1 2 0 1 0 1 1 5 13 15 13 12 11 11 13 13 13 15 15 14 16 18 19 19 19 17 15 13 12 13 12 10 10 11 10 11 13 13 10 9 9 10 11 12 13 12 12 12 10 10 11 10 9 8 7 7 6 4 4 4 5 5 5 5 6 9 10 7 4
8 7 7 7 6 6 6 5 5 6 6 6 4 3 1 1 1 1 1 1 2 2 1 6 13 15 12 10 10 10 11 12 13 15 13 12 13 16 17 17 16 15 13 11 11 10 9 8 9 10 11 13 14 15 13 11 10 11 12 13 14 14 15 14 12 11 11 10 9 8 7 7 6 6 6 5 4 3 4 4 5 8 8 5 3
9 8 7 7 6 6 6 5 6 6 6 5 3 2 0 1 0 1 2 3 3 5 6 8 13 15 13 11 9 9 10 10 11 12 11 11 12 13 14 15 14 13 12 10 9 9 9 9 8 9 12 13 13 14 15 13 11 11 13 14 14 15 15 14 13 12 11 10 9 9 9 9 8 7 6 6 5 4 3 4 5 7 6 4 4
9 9 9 8 6 5 5 5 6 6 5 3 2 1 1 0 1 2 3 4 5 7 9 10 13 14 13 11 9 8 9 8 8 9 9 10 11 11 12 13 12 11 9 8 7 8 12 13 11 10 13 15 13 15 15 13 11 11 12 13 13 13 12 12 12 12 11 11 11 10 10 10 10 9 9 9 9 9 7 5 6 6 5 4 5
10 10 9 7 5 3 4 5 5 5 3 1 1 1 0 1 2 3 4 5 6 8 9 10 12 13 13 11 9 8 8 7 7 8 9 11 11 10 9 10 10 9 9 9 8 8 12 14 14 13 14 14 14 14 14 11 10 11 11 11 11 11 10 9 9 9 8 9 9 8 8 9 8 8 10 12 12 12 10 7 6 6 6 5 6
11 10 8 6 5 3 3 5 3 3 2 1 1 1 1 3 4 5 5 5 6 7 9 10 12 13 12 11 9 8 8 7 7 7 9 11 12 10 9 10 11 11 11 11 11 11 11 12 13 13 13 14 14 14 14 12 10 10 10 10 10 11 10 9 9 9 8 8 8 7 7 7 6 5 6 8 9 9 9 7 7 6 6 6 5
11 10 8 7 6 4 2 3 3 3 3 2 2 2 2 3 5 6 6 6 7 9 10 10 11 13 12 11 10 9 8 8 8 7 8 10 11 11 10 11 12 12 13 13 13 12 11 11 13 14 14 14 14 14 15 14 11 10 10 10 11 12 10 9 10 10 9 8 8 7 7 6 5 5 5 5 6 6 6 7 7 6 6 6 6
10 10 8 8 7 5 3 2 3 4 3 3 2 3 4 4 5 5 6 7 9 12 13 10 9 11 11 10 10 9 8 8 8 8 7 9 10 10 10 12 13 13 13 14 13 13 12 13 15 15 15 15 14 14 14 13 12 12 12 11 13 13 11 9 9 8 7 8 7 6 6 5 5 5 5 5 6 6 5 6 6 6 5 5 5
10 9 8 8 7 6 5 4 4 5 4 4 3 4 5 5 4 5 7 10 12 14 13 10 8 9 8 8 8 8 8 7 7 7 8 8 9 10 12 14 14 13 14 15 14 14 15 16 18 16 15 14 14 12 11 11 12 13 13 13 14 14 10 8 8 8 7 7 7 6 6 5 5 5 5 6 6 6 5 5 6 6 6 5 4
10 9 8 8 7 7 6 6 6 5 5 4 4 5 5 5 5 7 8 11 14 14 11 8 7 7 7 6 6 6 7 7 6 7 8 9 10 12 15 16 15 14 15 15 15 15 16 17 17 15 14 13 12 12 12 13 15 15 15 16 15 12 9 8 8 8 8 7 7 7 6 6 6 6 5 5 6 6 6 5 5 6 7 7 6
10 9 9 9 8 8 7 7 7 6 5 5 4 5 6 6 6 8 9 11 13 13 10 7 6 6 5 6 6 6 6 6 7 8 10 11 12 14 15 17 17 16 15 14 15 16 17 17 16 14 13 13 13 14 14 15 16 17 16 14 11 8 7 8 8 7 7 7 7 6 6 6 6 5 4 3 5 7 7 6 6 7 9 8 6
10 9 9 9 8 8 8 7 7 7 7 6 5 5 6 7 8 9 10 11 12 11 10 8 6 6 5 6 7 7 7 6 8 10 12 13 14 15 15 16 16 15 15 16 17 17 17 16 15 14 13 12 11 12 14 16 17 16 14 11 8 7 7 7 7 7 7 7 6 6 5 5 4 3 2 3 5 7 8 8 8 8 10 9 7
10 9 9 9 9 9 8 7 8 8 8 7 6 6 6 7 8 10 11 11 11 10 10 8 7 6 6 6 7 8 8 8 8 10 11 12 14 14 15 15 14 15 16 17 17 16 16 15 14 13 13 12 12 14 16 15 13 11 9 8 8 8 8 8 7 7 6 6 6 5 4 4 3 2 2 3 5 5 7 8 8 9 10 10 8
9 9 9 9 9 9 9 7 8 8 8 8 7 7 7 7 8 10 11 12 12 11 10 9 7 6 6 7 8 8 9 9 9 10 10 10 11 12 12 13 12 12 13 14 14 14 14 13 12 12 12 12 12 12 12 10 8 7 8 9 9 9 9 9 8 7 5 5 4 4 3 3 3 3 2 4 5 5 6 8 8 9 11 10 9
10 9 9 10 9 9 9 9 9 9 9 8 6 6 6 7 7 9 11 11 11 11 10 9 8 6 6 8 9 9 9 10 12 12 13 12 12 12 12 11 10 10 12 14 14 13 12 12 11 11 11 10 10 10 9 8 8 8 7 7 7 7 6 6 6 5 4 3 3 3 2 2 2 3 3 5 6 6 6 8 9 9 10 11 10
10 9 9 10 9 9 10 10 10 10 9 8 6 6 6 6 6 6 9 11 12 10 8 7 8 8 7 8 9 9 9 12 15 16 16 15 14 14 13 12 11 13 16 17 14 12 11 11 10 10 9 9 9 8 8 8 8 8 7 6 5 5 4 3 4 3 2 1 1 1 1 1 2 3 4 5 7 6 6 8 9 9 10 11 10
10 9 9 9 9 10 11 10 11 11 9 7 7 7 7 7 7 7 8 10 11 11 9 7 8 9 8 9 10 9 9 13 17 18 16 15 15 14 14 14 13 15 17 15 10 9 9 9 9 8 8 7 7 7 7 6 6 6 6 5 4 4 3 3 2 1 1 2 1 1 1 1 2 3 4 5 6 6 7 8 8 9 10 11 11
10 10 10 9 9 10 11 10 11 11 9 8 8 7 7 7 7 7 9 10 10 11 11 10 10 10 10 11 11 11 11 15 18 17 15 15 14 12 13 14 13 14 14 10 6 7 8 8 7 7 6 6 6 6 5 5 5 4 4 4 4 4 4 3 3 2 3 3 3 3 3 3 3 4 4 5 5 7 8 8 9 9 10 11 12
11 10 10 10 10 11 11 11 11 11 10 9 9 8 7 7 7 8 9 9 10 10 11 11 11 11 12 12 13 14 16 17 17 16 15 15 14 13 13 13 13 13 12 8 5 5 6 6 6 6 6 6 6 6 5 4 4 4 4 3 4 4 4 4 5 6 6 5 5 5 4 4 4 4 5 5 6 7 8 8 9 10 11 12 13
12 10 10 11 11 11 12 12 12 11 10 10 10 9 8 8 8 9 10 10 10 10 11 12 13 13 13 14 15 16 17 17 16 16 15 15 14 14 14 13 13 13 13 10 6 5 5 5 5 6 5 5 5 5 5 5 5 5 4 4 5 5 5 6 7 7 7 7 7 6 5 4 4 5 6 7 7 7 8 9 9 10 12 13 13
12 11 12 12 11 11 12 12 12 12 12 11 11 10 9 9 9 10 11 11 11 12 12 14 15 16 15 15 16 16 17 17 17 16 16 16 15 14 13 13 13 13 13 12 9 7 6 6 6 6 6 6 6 5 5 5 5 5 6 6 6 6 6 7 8 8 8 8 8 7 6 5 5 5 7 8 7 7 9 9 10 11 12 12 13
13 12 14 14 12 11 12 13 13 12 12 11 11 11 11 10 10 11 11 12 13 14 14 15 16 17 17 16 17 17 17 17 17 16 16 16 15 15 14 12 12 12 13 13 10 8 7 6 5 5 5 5 5 5 5 5 6 6 6 6 6 7 7 7 8 8 9 9 9 9 8 7 7 7 7 7 7 8 9 10 10 11 11 11 13
15 13 13 15 13 12 12 13 13 13 12 12 12 12 12 11 11 11 12 13 13 15 16 16 17 18 18 18 18 18 18 17 17 16 16 15 16 16 15 13 11 11 11 10 10 8 7 6 5 5 5 5 5 5 5 6 6 7 7 7 8 8 7 7 7 8 9 10 10 9 8 8 8 7 7 6 7 8 9 10 10 11 11 11 13
16 15 14 15 15 13 13 13 14 14 13 13 13 13 12 12 12 12 12 13 14 15 16 17 19 19 19 19 20 21 20 19 18 18 18 18 18 19 18 15 12 10 9 8 8 8 7 6 5 4 5 5 5 6 6 6 7 7 7 7 8 7 7 7 8 9 9 10 10 9 8 8 7 6 5 5 6 8 9 9 10 11 12 12 12
16 15 16 17 16 14 13 14 14 15 16 14 14 13 13 13 13 13 13 13 14 15 16 16 18 20 20 19 21 22 21 19 18 18 19 20 20 19 18 15 13 11 9 8 8 7 7 6 5 5 5 5 5 6 6 6 7 7 7 7 7 7 6 7 7 8 8 8 9 8 7 7 6 5 5 6 7 7 8 9 10 11 12 12 12
16 16 18 20 18 14 13 14 15 16 17 16 15 14 14 14 14 14 14 14 15 16 16 16 17 19 20 20 21 22 21 19 18 18 18 18 19 18 17 15 14 12 11 10 10 9 8 8 7 6 5 5 5 5 6 6 6 6 6 6 6 7 7 7 7 8 7 6 6 6 6 6 5 5 5 6 6 7 8 10 10 10 11 11 12
17 16 18 22 21 16 14 15 15 15 16 16 16 15 15 15 15 15 15 15 15 16 17 17 17 18 19 19 21 23 22 19 17 18 17 17 17 18 17 16 14 13 13 12 11 10 10 9 8 7 6 5 5 5 5 6 6 6 6 6 6 6 7 7 6 5 5 5 5 5 5 5 4 5 6 6 6 7 8 9 9 10 11 11 11
18 17 17 21 23 20 16 16 16 15 15 16 16 15 15 15 16 16 16 16 16 16 16 17 17 18 19 19 21 24 22 18 16 17 17 17 17 17 17 16 15 14 14 12 11 11 10 9 8 7 6 5 5 5 5 6 6 6 6 6 6 6 6 5 4 4 4 4 5 5 5 5 5 6 6 7 7 8 8 9 9 10 11 11 11
18 18 16 18 21 21 18 17 17 16 16 16 15 15 15 15 15 16 16 16 16 16 16 17 17 18 18 19 22 24 22 19 18 17 17 18 17 17 16 16 15 15 14 12 11 10 10 9 9 8 7 6 6 6 6 5 5 6 6 6 5 5 4 4 4 5 4 4 5 5 6 6 6 6 7 7 7 8 8 9 10 10 10 10 11
18 18 17 17 19 21 20 19 18 18 17 17 16 15 15 15 15 15 16 17 17 17 17 17 18 18 18 19 22 23 22 21 20 19 18 18 17 16 16 16 15 14 13 12 10 10 10 10 10 9 8 7 7 6 6 5 5 5 5 5 5 5 5 5 5 5 4 4 4 4 5 5 5 6 7 6 7 7 9 9 9 9 10 11 12
19 19 18 18 18 19 20 20 19 19 18 18 17 17 17 17 16 15 16 17 17 18 17 17 17 18 19 19 20 22 22 22 21 20 19 18 17 17 17 16 15 14 13 11 11 11 11 11 11 11 10 9 8 8 7 6 5 5 4 4 5 5 5 5 5 4 4 4 3 4 5 5 5 6 7 7 7 8 9 9 9 10 11 11 12
19 19 19 19 19 19 19 20 20 19 19 19 19 18 18 18 17 16 16 17 17 18 18 18 18 19 19 19 19 21 22 23 22 21 20 19 18 17 16 16 15 14 12 11 13 14 14 13 13 12 11 11 10 9 8 7 7 6 6 5 6 6 6 6 5 4 3 3 3 4 5 5 6 7 8 8 8 8 9 9 10 10 11 12 12
19 19 19 20 19 19 20 20 19 20 20 20 20 19 19 19 19 18 17 18 18 18 19 19 18 19 20 20 19 20 21 23 23 21 20 19 18 17 17 15 14 13 12 13 14 15 16 16 14 13 13 13 12 11 10 9 8 8 7 7 7 8 7 6 5 4 3 3 4 4 5 6 6 7 7 8 8 8 9 10 10 11 11 11 12
19 19 19 20 20 19 20 20 20 20 20 20 20 20 20 19 19 19 18 18 19 20 20 20 20 20 20 20 20 20 20 21 22 21 20 20 19 18 17 15 14 13 13 15 16 16 17 17 16 15 16 16 14 12 12 11 9 9 9 10 10 10 10 8 6 5 5 5 4 4 5 6 7 7 7 8 8 9 10 10 10 11 11 11 12
21 21 20 20 21 20 20 20 20 21 21 20 20 20 20 20 20 20 19 19 19 20 21 22 21 20 20 20 21 21 20 20 21 22 21 20 19 18 16 16 16 16 15 16 17 18 18 18 17 17 17 16 15 14 13 12 11 12 13 13 12 12 11 9 8 8 7 6 4 4 6 6 7 7 8 9 9 9 10 10 10 11 11 12 13
22 22 21 21 21 21 20 20 20 20 21 21 21 21 21 21 21 21 21 20 20 20 21 22 23 22 21 21 20 21 21 21 21 22 22 21 19 16 15 15 18 17 16 16 17 19 19 18 18 18 17 16 16 14 13 13 14 15 15 13 12 12 11 10 9 9 8 6 5 5 6 7 7 8 9 9 9 10 10 10 11 11 12 13 14
22 22 22 21 21 20 20 20 20 20 21 21 22 22 22 22 22 22 22 21 21 20 21 22 23 23 23 22 21 21 22 22 22 22 22 20 18 16 17 18 20 19 17 17 17 19 19 19 19 19 19 18 17 16 16 17 18 16 14 12 12 12 12 11 10 10 10 9 9 8 7 8 8 9 9 9 10 10 10 11 11 12 13 14 14
Wind_Direction
273 275 276 282 293 302 305 307 308 309 305 287 268 259 254 249 249 249 249 249 248 247 247 244 241 237 234 231 227 224 223 221 216 215 215 216 219 223 219 217 222 225 225 223 221 222 224 224 224 219 214 217 222 225 225 223 224 228 235 242 246 248 249 255 267 280 286 283 282 286 285 281 285 304 328 342 342 335 339 349 351 3 2 349 338
268 270 275 282 290 299 304 306 310 313 309 297 282 274 269 262 255 250 247 248 249 249 248 246 243 238 234 232 228 225 224 222 219 215 214 213 214 219 220 218 221 223 222 221 219 220 221 222 225 221 214 215 220 223 223 218 218 223 230 234 242 251 251 255 267 279 287 289 288 283 278 280 291 319 349 2 354 334 336 352 347 349 355 346 338
265 265 272 280 287 292 297 301 307 311 310 302 294 290 288 283 273 263 255 251 249 248 247 247 246 241 236 233 229 226 225 223 220 216 214 212 209 213 217 218 221 221 219 217 216 217 217 219 224 224 215 215 220 224 224 220 219 224 226 228 240 250 248 250 260 273 284 288 288 289 292 296 303 327 5 15 354 330 334 348 341 338 343 338 337
264 264 268 276 283 289 293 294 300 308 310 306 300 298 297 293 284 275 267 261 254 250 248 247 247 243 239 235 229 227 226 224 222 218 214 211 209 212 216 217 217 218 216 214 214 214 214 217 222 221 214 214 222 224 222 221 222 224 225 226 234 242 241 242 250 263 275 282 291 300 309 317 321 341 9 10 347 329 330 337 333 330 334 335 335
268 272 272 274 279 284 287 288 292 297 303 304 300 302 304 303 295 284 279 275 266 259 255 250 245 242 241 238 235 233 229 225 224 224 217 211 210 213 215 213 212 213 212 211 213 212 211 215 221 218 213 217 224 224 223 222 221 222 225 227 228 232 236 240 246 255 266 276 287 294 300 315 337 4 17 3 342 332 328 329 326 323 331 339 338
268 275 277 276 277 278 279 280 282 283 290 298 300 303 310 314 313 303 294 286 277 268 263 258 249 243 241 239 237 236 230 224 225 228 221 210 207 209 211 209 206 207 207 207 209 209 208 214 219 216 214 219 224 224 223 222 223 224 222 220 221 225 232 239 244 251 262 274 282 285 296 322 343 10 28 10 340 329 329 332 329 329 339 343 343
267 273 276 277 278 278 274 274 274 276 287 298 301 307 317 328 330 325 320 308 293 279 269 263 255 246 241 239 237 235 229 224 227 229 223 213 207 205 207 208 206 205 204 203 206 206 206 211 215 216 218 222 225 227 226 223 222 221 215 213 216 221 229 235 238 251 265 279 288 291 305 329 347 1 6 349 329 326 337 338 334 338 344 343 346
266 272 275 276 278 278 275 274 274 278 290 295 306 324 335 343 345 343 343 335 323 307 284 268 260 251 244 242 240 233 225 222 225 225 219 213 208 205 206 209 211 211 206 203 204 203 203 207 211 212 214 218 217 214 212 211 212 214 208 207 212 220 231 238 247 267 281 291 295 301 313 318 337 345 333 328 326 330 342 340 332 338 341 335 341
261 268 270 271 274 275 271 277 293 299 290 283 302 328 333 342 348 351 354 351 345 333 312 287 270 255 245 243 240 231 223 220 220 218 214 211 208 204 203 207 212 213 205 197 198 195 187 190 199 200 204 208 207 202 199 195 198 202 197 197 213 236 250 255 268 282 290 292 296 310 308 302 329 350 332 331 331 326 332 335 330 339 339 330 335
254 260 262 264 265 263 258 272 296 301 296 292 301 313 316 324 332 342 357 1 355 348 339 322 284 254 234 230 232 229 224 218 215 214 213 211 206 199 195 197 204 207 199 189 184 177 167 176 194 199 201 202 200 199 198 194 192 193 187 189 208 235 264 275 278 281 286 288 290 299 298 306 1 15 338 328 328 323 331 336 334 341 342 334 340
247 251 256 256 252 251 249 256 271 280 288 294 303 310 312 316 315 322 352 5 2 7 20 30 14 235 131 164 203 217 222 220 218 217 215 212 207 199 193 191 193 197 192 181 170 162 154 161 174 175 181 186 183 181 184 185 190 194 188 187 193 200 233 268 277 275 273 274 274 284 298 324 15 15 335 328 332 334 336 337 341 346 348 345 346
243 246 250 248 244 248 251 256 266 276 284 291 301 308 308 312 312 312 347 11 10 19 52 79 87 86 80 88 114 158 192 208 211 207 201 197 192 184 179 179 178 174 169 166 162 157 152 149 147 149 163 170 166 166 167 160 152 152 148 145 149 154 172 212 241 243 265 275 283 20 340 319 340 356 345 343 343 340 339 343 351 349 345 349 352
241 245 247 245 246 254 263 267 272 279 290 295 299 300 298 306 314 316 8 36 11 354 46 95 94 87 82 80 77 87 113 138 165 177 178 175 170 163 159 162 163 156 154 158 157 151 147 148 148 151 155 149 143 147 144 132 121 113 110 113 114 116 124 140 156 144 130 261 114 79 33 1 12 18 2 351 345 342 343 349 355 349 345 354 1
237 242 246 247 251 260 268 275 282 287 296 300 298 294 292 307 308 301 16 52 343 303 322 98 93 82 79 82 75 73 85 96 113 136 147 152 154 153 150 152 154 152 151 150 145 137 133 137 144 146 144 144 149 152 142 128 117 108 101 98 98 100 99 96 100 109 103 95 102 93 67 58 59 40 11 358 350 347 345 344 345 342 335 326 330
233 237 244 249 255 264 271 279 289 296 300 300 295 288 291 336 299 275 27 73 95 313 301 103 98 90 85 88 83 74 76 81 87 95 104 120 135 138 138 142 146 147 144 141 136 130 124 129 137 140 148 157 157 152 145 137 130 123 112 100 97 100 98 91 90 95 94 93 96 95 87 79 70 51 30 13 352 338 325 319 325 324 315 299 296
235 232 240 250 256 265 275 285 294 302 305 300 292 286 303 27 285 240 159 139 119 100 110 110 103 99 93 86 81 77 73 71 75 81 89 106 122 129 132 133 132 130 127 121 116 113 116 128 137 142 151 157 152 145 141 140 140 130 115 105 101 100 97 94 96 97 95 97 97 95 92 83 75 68 55 46 35 348 305 302 326 326 318 321 344
240 234 239 250 256 266 279 291 299 304 305 296 285 288 339 68 210 210 175 154 132 116 116 109 99 95 90 80 75 75 73 70 74 83 99 115 120 122 124 122 117 114 111 106 106 116 129 130 128 135 141 141 142 142 138 137 140 134 122 114 108 103 99 96 94 90 89 92 90 88 90 87 82 76 60 54 62 44 359 343 349 335 329 354 357
243 239 243 248 252 267 283 295 305 307 301 284 274 292 306 201 186 191 173 149 130 121 116 106 96 93 89 82 74 71 72 78 86 95 112 122 119 116 118 117 115 114 117 116 118 135 144 136 124 127 133 131 134 138 134 134 141 138 129 123 115 110 109 105 96 86 82 85 86 87 90 86 79 72 64 66 72 68 53 21 358 344 340 0 351
242 243 246 241 232 260 289 293 304 305 294 266 250 276 238 185 181 174 161 144 128 119 114 106 97 92 88 85 82 77 76 83 98 116 132 133 123 121 129 132 132 136 140 138 128 126 135 135 128 129 133 132 134 137 134 138 145 140 135 131 122 118 120 119 113 103 96 94 93 91 89 84 78 69 61 60 62 62 57 32 11 5 352 355 352
243 245 245 227 198 200 275 283 288 285 272 243 207 201 156 159 170 169 160 151 135 121 116 111 101 94 90 90 87 84 83 85 94 118 141 143 133 132 144 146 145 148 148 143 133 123 122 125 126 127 128 130 135 138 137 137 137 136 134 129 123 124 127 127 125 122 117 115 113 110 105 100 97 88 67 56 50 49 46 34 24 16 355 352 354
240 240 240 229 206 191 227 273 272 251 245 230 197 183 163 156 163 167 162 152 142 132 125 115 103 96 95 93 89 84 81 83 90 106 133 148 142 136 143 148 147 147 146 142 137 131 122 120 123 123 123 126 131 137 139 136 129 126 127 129 129 130 128 126 127 124 121 122 122 119 116 111 103 91 73 57 45 39 37 30 25 18 2 354 349
232 232 232 233 227 206 190 228 245 236 232 222 195 178 170 160 160 164 157 146 141 136 128 117 103 97 94 89 87 83 74 74 85 94 113 140 146 139 139 143 144 143 140 136 134 130 123 120 122 122 121 123 126 130 134 133 128 122 124 130 132 128 122 123 127 124 122 122 119 115 112 106 92 80 69 57 48 39 32 27 19 11 1 353 344
226 228 227 229 230 217 195 191 208 222 221 210 189 174 170 169 169 165 152 144 143 137 128 118 107 99 93 87 86 83 74 69 74 85 100 121 138 141 137 134 135 137 136 131 127 123 120 120 121 121 120 120 122 124 126 125 120 117 117 121 119 114 111 115 118 116 116 114 109 104 99 90 80 73 66 55 43 28 16 6 359 354 346 335 324
221 222 221 224 223 216 199 187 193 206 205 195 185 172 170 176 179 171 157 149 148 141 128 119 116 108 102 99 94 86 79 72 73 88 103 113 126 136 134 128 125 127 127 124 122 121 122 124 124 124 124 125 123 120 118 115 112 110 110 110 107 105 109 116 116 117 118 114 109 102 92 82 75 70 62 52 36 20 8 357 349 348 340 326 308
211 215 222 224 218 212 202 190 191 197 194 193 187 173 178 185 178 169 163 155 151 147 137 128 129 127 122 120 115 103 93 87 89 100 110 115 122 130 133 129 124 121 119 121 125 127 128 128 127 125 122 117 113 112 110 109 109 109 106 102 101 104 113 115 115 116 113 109 106 101 93 87 78 68 62 54 35 21 14 7 358 352 347 337 323
206 215 224 222 211 206 205 197 194 194 194 201 195 176 184 189 175 167 167 161 155 153 152 151 151 147 141 139 135 125 113 106 108 112 115 118 122 127 132 132 128 123 122 124 126 127 127 126 126 123 116 111 112 115 113 111 111 108 101 97 101 109 111 110 111 112 109 105 101 97 95 94 84 75 74 49 29 21 14 4 357 357 356 350 349
207 212 217 213 203 204 204 196 192 193 195 203 200 183 184 187 175 170 170 166 163 160 160 165 171 164 155 149 142 136 131 126 126 127 124 126 132 134 133 132 128 123 122 123 125 128 130 130 127 124 120 121 124 121 117 114 114 111 103 100 103 104 103 105 107 105 104 104 101 97 97 92 77 74 68 34 17 13 9 0 354 356 357 352 349
208 211 211 207 202 203 200 191 192 196 195 202 203 189 180 185 185 181 176 171 170 172 175 180 179 170 162 157 151 148 147 145 146 148 145 143 144 143 141 139 134 129 129 131 133 135 135 131 127 126 126 128 129 127 126 127 129 127 120 114 111 110 110 111 109 105 102 104 102 93 95 95 70 50 40 23 10 1 1 358 353 352 353 350 346
205 209 208 205 203 205 202 196 198 201 197 197 197 183 173 178 183 183 184 184 179 177 181 187 182 173 164 161 161 160 159 162 166 166 164 161 156 154 156 154 146 147 150 146 141 142 144 144 143 145 146 146 144 143 143 141 137 132 130 131 132 133 132 126 117 107 100 107 108 85 73 79 53 30 18 10 1 354 356 356 351 348 349 346 341
201 205 204 203 204 205 205 199 196 198 199 194 186 173 171 183 187 179 184 193 194 189 185 176 171 170 166 166 170 169 167 175 178 175 171 168 164 165 169 166 161 159 157 151 149 152 155 155 154 155 155 153 149 147 144 144 144 140 141 147 146 138 139 139 124 111 109 129 122 64 38 31 20 9 359 356 353 348 351 353 348 345 346 342 337
199 201 200 202 201 201 203 200 194 196 196 191 184 170 161 177 193 187 182 189 196 202 204 193 181 177 170 169 175 178 177 179 177 173 170 168 166 167 167 163 160 156 151 151 159 160 154 153 152 151 152 150 147 149 150 151 156 153 150 158 160 153 163 173 154 151 209 210 207 304 314 316 335 343 343 345 344 342 345 347 344 341 341 339 336
200 201 199 196 194 200 204 198 194 196 192 185 185 177 160 156 166 178 186 190 193 201 208 207 201 194 181 172 175 179 179 176 174 172 174 172 168 166 163 159 159 157 155 161 176 166 153 152 151 149 155 156 153 157 162 163 170 173 175 184 187 191 206 207 199 230 250 245 251 263 268 283 309 323 327 330 333 336 339 339 338 338 338 336 334
201 201 199 193 192 202 206 199 196 200 195 187 187 183 174 164 152 154 172 185 190 194 196 194 193 192 186 181 180 178 175 173 172 174 177 177 176 176 174 172 172 171 173 183 195 173 159 158 157 157 165 170 168 173 181 186 192 198 209 221 223 234 244 228 221 237 248 250 260 267 266 274 291 304 312 319 325 329 331 331 331 333 335 333 332
202 199 198 195 194 200 204 201 199 201 198 194 192 187 182 176 161 152 158 168 175 182 184 182 180 179 181 184 184 181 177 176 177 177 178 180 183 184 185 186 188 190 196 207 214 193 176 175 177 179 185 190 191 194 200 208 218 226 235 243 253 267 270 254 246 252 254 251 256 260 260 267 285 302 310 314 319 321 323 325 327 330 331 330 329
202 196 192 195 199 201 202 202 201 201 200 196 194 193 189 180 172 168 166 167 171 174 176 179 179 178 178 181 182 182 182 182 182 182 182 182 184 184 186 191 196 200 208 219 226 217 200 197 199 200 202 206 209 213 221 228 235 243 248 255 263 272 274 268 264 266 270 272 273 271 266 265 275 292 303 306 309 313 317 321 325 327 327 327 326
202 194 188 193 201 202 200 201 201 201 200 198 195 195 193 187 182 181 177 175 177 178 177 179 182 183 186 189 188 187 188 188 187 188 190 191 192 193 195 200 202 204 208 215 222 221 215 215 218 217 217 220 222 228 237 243 248 251 254 261 269 272 272 273 273 274 275 276 276 276 270 262 264 278 290 294 298 306 313 318 321 322 322 321 321
204 199 190 191 197 198 197 198 200 199 199 200 200 198 197 195 193 191 188 184 184 184 182 179 179 184 192 198 198 195 194 196 199 201 203 207 209 211 217 223 221 212 208 209 212 213 216 221 225 229 234 236 240 245 249 254 258 256 253 257 265 270 272 274 278 280 278 273 271 268 261 257 266 278 283 283 290 301 310 314 314 315 315 314 312
207 207 197 189 190 194 194 193 195 195 196 201 203 202 201 200 199 199 198 194 191 193 190 182 178 184 192 197 200 202 202 204 208 211 214 217 220 222 228 235 235 225 217 212 207 210 219 223 224 234 244 246 249 254 254 255 259 259 256 256 260 263 263 265 268 268 266 266 266 262 254 254 265 272 272 274 286 297 303 307 309 312 313 312 309
208 209 201 191 188 193 195 190 189 192 196 202 205 205 203 204 203 204 204 200 196 199 200 191 186 190 193 190 192 199 204 204 206 210 213 217 222 224 226 228 228 224 223 220 213 212 224 233 234 241 249 249 248 249 251 253 255 254 254 258 261 260 261 266 270 268 263 261 261 257 250 252 259 265 270 278 285 292 298 302 305 306 307 307 307
210 207 202 198 196 197 198 193 189 191 197 202 205 205 205 206 206 207 207 205 201 202 205 203 195 196 198 191 185 190 198 203 206 209 210 210 214 218 219 221 222 220 219 222 223 223 230 238 241 243 244 242 239 240 243 247 248 247 247 252 260 266 271 274 276 276 270 259 250 244 241 242 248 256 267 275 279 285 292 296 296 296 298 300 300
213 207 203 204 204 200 200 200 197 195 198 202 205 207 207 207 208 209 209 208 206 203 207 209 204 201 203 197 186 187 197 206 208 210 210 208 208 212 215 219 221 221 222 226 229 231 235 240 241 240 236 229 228 231 233 236 240 245 248 251 255 264 272 273 269 264 252 238 230 229 227 230 241 257 268 276 280 283 286 288 290 292 294 296 296
210 204 198 201 203 202 202 205 204 201 201 203 206 209 209 207 209 210 209 209 209 205 206 209 209 205 204 199 191 193 202 212 216 214 213 211 211 213 216 218 221 224 228 231 232 234 236 234 229 226 223 218 219 225 228 231 239 247 253 256 257 259 261 255 235 214 210 208 204 205 212 227 249 264 269 271 275 279 281 285 290 292 292 292 293
207 204 197 195 199 202 204 207 207 206 207 208 208 209 209 209 209 210 210 210 210 209 207 208 209 206 202 199 200 204 209 217 223 223 218 215 216 217 218 221 225 227 229 232 233 233 230 222 214 213 212 208 210 218 227 233 242 250 255 255 250 246 237 215 192 188 194 194 192 206 227 244 257 268 271 268 269 275 282 286 287 289 289 291 295
204 205 202 197 197 202 205 208 210 210 210 209 208 207 208 211 212 212 211 211 210 211 211 210 210 206 199 196 201 207 211 217 223 225 222 220 221 222 223 226 229 228 229 230 227 220 215 211 206 200 197 197 201 209 220 227 235 245 249 240 223 214 207 194 184 186 193 194 200 226 245 249 257 270 275 272 271 277 283 285 286 287 288 291 293
206 206 206 203 202 204 206 208 210 211 208 207 208 207 207 211 214 215 214 214 213 214 215 214 213 211 205 199 200 205 211 217 222 224 225 224 223 225 228 231 230 229 228 224 217 211 208 204 199 193 191 192 195 198 202 207 213 220 222 212 201 193 186 180 177 180 189 204 228 254 262 262 267 276 280 280 281 283 285 286 286 287 287 288 288
208 208 208 207 206 207 207 207 208 209 206 206 209 209 208 210 214 215 216 217 216 216 217 217 215 214 212 209 206 207 211 217 221 223 225 226 225 227 230 231 229 226 222 216 214 212 205 197 195 194 190 187 188 190 190 190 193 195 194 193 190 181 174 177 185 190 196 216 243 263 269 272 277 278 279 282 285 285 284 284 284 284 285 286 286
210 209 210 210 209 208 208 207 206 207 207 208 210 210 210 210 212 213 213 215 216 218 219 219 217 216 215 214 212 210 212 216 221 223 224 225 227 229 231 229 224 219 214 211 211 208 201 196 194 191 187 188 190 188 186 186 187 184 179 179 181 183 185 188 189 191 205 230 253 266 270 273 276 276 276 278 281 283 284 284 282 282 283 285 288
213 212 212 212 211 210 210 208 205 206 208 209 208 209 210 210 210 211 211 211 212 214 217 219 219 218 217 216 216 216 215 216 220 223 224 225 227 230 228 223 219 215 212 209 207 202 198 196 192 189 192 198 197 189 185 185 180 177 183 194 204 211 215 210 201 207 231 253 264 269 270 272 273 272 271 272 275 279 282 283 283 285 287 289 290
215 215 214 212 212 212 212 210 206 206 209 210 209 209 209 209 210 211 211 211 210 212 215 217 219 219 218 217 217 218 218 219 222 224 224 225 227 226 220 219 222 221 212 206 205 202 197 194 193 193 197 199 195 189 188 184 180 188 207 220 224 227 231 230 232 244 258 266 268 269 272 274 272 272 273 275 275 275 276 278 282 286 289 290 291
214 215 214 213 211 212 214 212 210 210 211 211 211 210 209 209 211 212 212 212 212 212 213 216 218 219 221 220 218 218 220 222 223 223 224 226 226 219 212 221 233 230 215 204 203 201 196 194 196 197 196 195 192 189 184 183 191 208 225 230 227 229 236 241 248 258 264 266 262 264 270 272 271 272 276 277 277 277 278 279 282 287 289 290 290
211 213 214 214 213 213 213 213 213 214 213 211 213 214 212 211 213 214 213 213 214 213 214 215 217 218 220 221 221 221 222 223 223 225 226 225 220 216 222 237 244 235 215 201 198 198 197 196 197 198 198 198 193 187 186 196 210 223 229 227 226 233 241 246 252 260 265 269 271 271 270 269 270 272 275 277 278 280 282 282 284 286 287 287 288